ICT,Max TemperatureF,Mean TemperatureF,Min TemperatureF,Max Dew PointF,MeanDew PointF,Min DewpointF,Max Humidity, Mean Humidity, Min Humidity, Max Sea Level PressureIn, Mean Sea Level PressureIn, Min Sea Level PressureIn, Max VisibilityMiles, Mean VisibilityMiles, Min VisibilityMiles, Max Wind SpeedMPH, Mean Wind SpeedMPH, Max Gust SpeedMPH,PrecipitationIn, CloudCover, Events, WindDirDegrees
2012-9-1,87,82,77,75,73,72,89,77,62,29.80,29.72,29.62,6,6,5,51,4,,0.00,5,Rain,167
2012-9-2,86,80,75,77,74,73,94,79,66,29.77,29.74,29.65,6,6,6,7,3,,0.00,7,,107
2012-9-3,87,82,77,75,73,72,89,76,58,29.86,29.77,29.71,6,6,6,10,4,,0.00,5,,88
2012-9-4,84,80,75,75,72,70,94,80,66,29.89,29.84,29.77,6,6,6,14,3,,0.00,3,,77
2012-9-5,87,79,71,72,71,70,94,78,58,29.89,29.81,29.77,6,6,6,14,4,,0.00,4,,20
2012-9-6,87,80,73,73,72,70,94,80,62,29.89,29.81,29.74,6,6,6,10,4,,0.00,6,,11
2012-9-7,87,81,75,73,72,70,89,78,58,29.86,29.80,29.74,6,6,6,12,6,,0.00,6,Rain-Thunderstorm,7
2012-9-8,82,78,75,75,73,72,94,87,74,29.92,29.84,29.80,6,6,3,6,3,,0.00,7,Rain-Thunderstorm,334
2012-9-9,78,76,75,73,73,72,94,90,78,29.95,29.89,29.83,6,6,5,7,2,,0.00,8,Rain,109
2012-9-10,86,80,75,73,72,70,94,77,58,29.92,29.84,29.74,6,6,2,12,3,,0.00,6,Rain-Thunderstorm,190
2012-9-11,87,81,75,73,72,70,89,72,55,29.89,29.80,29.71,6,6,6,6,1,,0.00,5,Rain,110
2012-9-12,87,81,75,75,74,72,94,79,58,29.86,29.78,29.71,6,6,2,23,3,,0.00,6,Rain-Thunderstorm,147
2012-9-13,87,80,73,75,73,68,94,82,62,29.86,29.78,29.68,6,5,2,15,4,,0.00,7,Rain-Thunderstorm,65
2012-9-14,75,72,69,70,68,66,94,84,78,29.89,29.83,29.77,6,5,1,14,10,,0.00,7,Rain,14
2012-9-15,77,72,68,68,67,66,94,83,73,29.92,29.86,29.80,6,5,2,13,8,,0.00,7,Rain,16
2012-9-16,86,78,71,73,70,68,94,75,58,29.92,29.87,29.83,6,6,6,6,1,,0.00,5,,334
2012-9-17,89,82,75,73,72,68,94,70,52,29.95,29.88,29.80,6,6,6,5,1,,0.00,3,,250
2012-9-18,89,81,73,73,72,70,94,68,52,29.89,29.81,29.74,6,6,4,8,3,,0.00,3,Fog,146
2012-9-19,89,82,75,73,72,70,89,68,52,29.86,29.78,29.71,6,6,5,8,3,,0.00,6,,182
2012-9-20,82,78,75,75,73,72,94,82,70,29.89,29.83,29.77,6,6,6,6,3,,0.00,6,Rain-Thunderstorm,194
2012-9-21,89,81,73,73,72,70,94,75,52,29.92,29.83,29.74,6,6,6,7,2,,0.00,4,,179
2012-9-22,87,82,77,75,73,72,89,69,58,29.89,29.81,29.71,6,6,3,6,2,,0.00,4,,162
2012-9-23,91,83,75,75,74,72,94,72,52,30.04,29.78,29.68,6,6,5,5,2,,0.00,4,,111
2012-9-24,89,82,75,77,74,73,94,80,59,29.80,29.73,29.65,6,6,6,7,2,,0.00,6,Thunderstorm,266
2012-9-25,89,82,73,75,73,70,94,80,58,29.83,29.78,29.71,6,6,5,15,2,26,0.00,6,Rain-Thunderstorm,81
2012-9-26,87,80,73,73,72,70,94,74,55,29.95,29.87,29.77,6,6,6,7,5,,0.00,3,,31
2012-9-27,87,80,73,75,73,72,94,77,62,29.95,29.86,29.77,6,6,3,26,6,,0.00,4,Rain-Thunderstorm,68
2012-9-28,87,81,75,73,71,68,94,70,52,29.95,29.87,29.77,6,6,6,9,4,,0.00,4,,46
2012-9-29,87,80,73,73,71,66,94,71,51,29.98,29.90,29.80,6,6,2,8,3,,0.00,3,,45
2012-9-30,86,80,73,75,72,70,94,80,58,29.98,29.91,29.83,6,5,3,8,2,,0.00,7,Rain,22